Location: Eldred Sherwood Park Lake Dam
(42.9416°N, 93.5655°W)
Time: 09:03:41
(UTC+00:00)

Vanguard 2 Rocket - Pass Details

Date: 16 November 2024
Orbit: 554 x 3296 km, 32.9° (Epoch: 06 December)

Event Time Altitude Azimuth Distance (km) Brightness Sun altitude
Rises 12:30:38 0° 230° (SW) 5,187 10.5 -7.2°
Reaches altitude 10° 12:33:42 10° 224° (SW) 4,513 10.2 -6.7°
Maximum altitude 12:46:32 48° 155° (SSE) 3,388 10.2 -4.5°
Drops below altitude 10° 13:04:43 10° 90° (E) 6,244 12.5 -1.5°
Sets 13:09:53 0° 86° (E) 7,258 12.7 -0.6°
